Stillwater, OK

3:53 PM CDT on September 21, 2017 (GMT -0500)
Stillwater Municipal

Weather History for KSWO - November, 2013

Change the Weather History Date:

Friday, November 29, 2013

  Actual Average Record
Temperature  
Mean Temperature 42 °F -  
Max Temperature 60 °F 53 °F 75 °F (2014)
Min Temperature 25 °F 32 °F 21 °F (2005)
Degree Days  
Heating Degree Days 22    
Moisture  
Dew Point 26 °F    
Average Humidity 58    
Maximum Humidity 89    
Minimum Humidity 26    
Precipitation  
Precipitation 0.00 in - - ()
Sea Level Pressure  
Sea Level Pressure 30.35 in    
Wind  
Wind Speed 5 mph (SSE)    
Max Wind Speed 16 mph    
Max Gust Speed 23 mph    
Visibility 10 miles    
Events      
Averages and records for this station are not official NWS values.
T = Trace of Precipitation, MM = Missing Value Source: NWS Daily Summary

Daily Weather History Graph

Daily Weather History Graph

Search for Another Location

Airport or City:

Trip Planner

Search our weather history database for the weather conditions in past years. The results will help you decide how hot, cold, wet, or windy it might be!

Date:

Astronomy

Nov. 29, 2013 Rise Set
Actual Time 7:19 AM CST 5:14 PM CST
Civil Twilight 6:51 AM CST 5:42 PM CST
Nautical Twilight 6:19 AM CST 6:13 PM CST
Astronomical Twilight 5:48 AM CST 6:44 PM CST
Moon 3:32 AM CST (11/29) 2:54 PM CST (11/29)
Length of Visible Light 10h 51m
Length of Day
9h 54m
Waning Crescent, 14% of the Moon is Illuminated
Nov 29
Waning Crescent
Dec 2
New
Dec 9
First Quarter
Dec 17
Full
Dec 25
Last Quarter

Hourly Weather History & Observations

Time (CST) Temp. Windchill Dew Point Humidity Pressure Visibility Wind Dir Wind Speed Gust Speed Precip Events Conditions
12:53 AM 28.9 °F - 24.1 °F 82% 30.42 in 10.0 mi Calm Calm - N/A   Clear
1:53 AM 30.0 °F 26.5 °F 24.1 °F 79% 30.42 in 10.0 mi East 3.5 mph - N/A   Clear
2:53 AM 27.0 °F - 24.1 °F 89% 30.43 in 10.0 mi Calm Calm - N/A   Clear
3:53 AM 25.0 °F - 21.0 °F 85% 30.43 in 10.0 mi Calm Calm - N/A   Clear
4:53 AM 26.1 °F 21.9 °F 21.9 °F 84% 30.43 in 10.0 mi ESE 3.5 mph - N/A   Clear
5:53 AM 26.1 °F 21.9 °F 21.9 °F 84% 30.44 in 10.0 mi ESE 3.5 mph - N/A   Clear
6:53 AM 25.0 °F 20.7 °F 19.9 °F 81% 30.45 in 10.0 mi ESE 3.5 mph - N/A   Clear
7:53 AM 27.0 °F - 23.0 °F 85% 30.45 in 10.0 mi Calm Calm - N/A   Clear
8:53 AM 34.0 °F 28.0 °F 28.0 °F 79% 30.46 in 10.0 mi SE 6.9 mph - N/A   Clear
9:53 AM 42.1 °F 37.1 °F 28.9 °F 60% 30.45 in 10.0 mi South 8.1 mph - N/A   Clear
10:53 AM 50.0 °F - 28.0 °F 43% 30.43 in 10.0 mi SSE 5.8 mph - N/A   Clear
11:53 AM 57.0 °F - 28.0 °F 33% 30.40 in 10.0 mi South 10.4 mph - N/A   Clear
12:53 PM 59.0 °F - 26.1 °F 28% 30.35 in 10.0 mi South 13.8 mph - N/A   Clear
1:53 PM 59.0 °F - 25.0 °F 27% 30.32 in 10.0 mi SE 16.1 mph 23.0 mph N/A   Clear
2:53 PM 60.1 °F - 25.0 °F 26% 30.28 in 10.0 mi SSE 16.1 mph 20.7 mph N/A   Clear
3:53 PM 57.9 °F - 26.1 °F 30% 30.27 in 10.0 mi SSE 13.8 mph - N/A   Clear
4:53 PM 55.0 °F - 26.1 °F 33% 30.25 in 10.0 mi SSE 11.5 mph - N/A   Clear
5:53 PM 50.0 °F - 26.1 °F 39% 30.26 in 10.0 mi SSE 9.2 mph - N/A   Clear
6:53 PM 45.0 °F 41.8 °F 28.0 °F 52% 30.27 in 10.0 mi SE 5.8 mph - N/A   Clear
7:53 PM 45.0 °F 39.7 °F 28.9 °F 53% 30.27 in 10.0 mi SE 10.4 mph - N/A   Clear
8:53 PM 45.0 °F 40.1 °F 28.9 °F 53% 30.26 in 10.0 mi SSE 9.2 mph - N/A   Clear
9:53 PM 45.0 °F 38.9 °F 30.0 °F 56% 30.25 in 10.0 mi South 12.7 mph - N/A   Clear
10:53 PM 44.1 °F 38.1 °F 30.0 °F 58% 30.25 in 10.0 mi SSE 11.5 mph - N/A   Clear
11:53 PM 43.0 °F 37.7 °F 30.9 °F 62% 30.24 in 10.0 mi SSE 9.2 mph - N/A   Clear